Regional Weather Roundup
Issued by NWS

Home | Current Version | Previous Version | Graphics & Text | Print | Product List | Glossary On
Versions: 1 2 3 4 5 6 7 8 9 10 11 12 13 14 15 16 17 18 19 20 21 22 23 24 25 26 27 28 29 30 31 32 33 34 35 36 37 38 39 40 41 42 43 44 45
000
ASUS45 KSLC 291610
RWRUT

UTAH REGIONAL WEATHER ROUNDUP
NATIONAL WEATHER SERVICE SALT LAKE CITY UT
1000 AM MDT MON SEP 29 2014

UTZ001>011-023>025-291700-

NORTHERN UTAH

CITY           SKY/WX    TMP DP  RH WIND       PRES   REMARKS
HILL AFB       MOSUNNY   55  43  66 E6        30.01S
LOGAN          NOT AVBL
OGDEN          PTSUNNY   57  44  62 CALM      30.00S
PROVO AIRPORT  PTSUNNY   55  41  58 S7        30.03S
SALT LAKE CITY MOSUNNY   57  47  69 S9        29.99S
VERNAL         CLOUDY    49  45  86 NE6       30.05S
WENDOVER       CLOUDY    54  43  66 E5        30.00R
HEBER CITY     MOSUNNY   45  41  87 CALM      30.05S
WEST JORDAN    SUNNY     55  45  67 S8        30.01S

$$

UTZ012>022-026-027-291700-

SOUTHERN UTAH

CITY           SKY/WX    TMP DP  RH WIND       PRES   REMARKS
BRYCE CANYON   CLOUDY    41  38  89 SE8       30.12R
CEDAR CITY     SUNNY     53  37  54 CALM      30.05R
MILFORD        SUNNY    N/A N/A N/A S15       30.03R
MOAB/CYNLANDS  MOSUNNY   54  49  83 NW5       30.00S
PRICE          PTSUNNY   49  43  80 SE7       30.05S
ST GEORGE      MOSUNNY   64  45  48 CALM      30.01S
KANAB          CLOUDY    52  46  82 SW5       30.10

$$

REGIONAL REPORTS     COLORADO/ARIZONA

CITY           SKY/WX    TMP DP  RH WIND       PRES   REMARKS
CRAIG, CO      PTSUNNY   51  44  77 NE6       30.05F
GRAND JUNCTION CLOUDY    54  50  86 SE8       30.01S
RIFLE          PTSUNNY   52  47  83 CALM      30.03F
MONTROSE       PTSUNNY   53  49  86 CALM      30.06F
CORTEZ         SUNNY     61  46  57 S13       30.05F
PAGE, AZ       NOT AVBL
GRAND CANYON   MOSUNNY   53  32  44 W10G16    30.11R
KINGMAN        NOT AVBL
FLAGSTAFF      PTSUNNY   49  36  61 SW8       30.14R

$$

REGIONAL REPORTS    NEVADA/IDAHO/WYOMING

CITY           SKY/WX    TMP DP  RH WIND       PRES   REMARKS
LAS VEGAS, NV  SUNNY     69  44  40 S8        29.93R
ELY            MOSUNNY   43  37  79 S10       30.07R
ELKO           CLOUDY    48  41  76 SW8       30.03S
POCATELLO, ID  MOSUNNY   51  47  86 W3        30.01R
BURLEY         CLOUDY    49  45  86 VRB3      29.99R
EVANSTON, WY   CLOUDY    43  39  86 S5        30.06F
ROCK SPRINGS   PTSUNNY   45  41  86 CALM      30.06R

$$



USA.gov is the U.S. government's official web portal to all federal, state and local government web resources and services.